Regional Weather Roundup
Issued by NWS

Home | Current Version | Previous Version | Text Only | Print | Product List | Glossary On
Versions: 1 2 3 4 5 6 7 8 9 10 11 12 13 14 15 16 17 18 19 20 21 22 23 24 25 26 27 28 29 30 31 32 33 34 35 36 37 38 39 40 41 42 43 44 45 46 47 48 49 50
000
ASPQ40 PGUM 030514
RWRPQ
WEATHER ROUNDUP FOR THE MARIANAS AND MICRONESIA
NATIONAL WEATHER SERVICE TIYAN GU
300 PM CHST MON AUG 03 2015

GUZ001>004-030600-
MARIANA ISLANDS-

CITY           SKY/WX    TMP DP  RH WIND       PRES   REMARKS
GUAM AIRPORT   PTSUNNY   82  81  94 S6        29.59S HX  95
ANDERSEN AFB   LGT RAIN  84  77  79 SW20      29.59S HX  94
ROTA AIRPORT   NOT AVBL
TINIAN AP      NOT AVBL
SAIPAN AP      NOT AVBL

$$

PMZ161-030600-
REPUBLIC OF PALAU-

CITY           SKY/WX    TMP DP  RH WIND       PRES   REMARKS
KOROR AP       CLOUDY    84  75  74 SW15G23   29.74F HX  92
KOROR WSO      CLOUDY    84  75  74 W16       29.76F HX  92

$$

PMZ171>174-030600-
FEDERATED STATES OF MICRONESIA-

CITY           SKY/WX    TMP DP  RH WIND       PRES   REMARKS
YAP AIRPORT    CLOUDY    88  77  70 W9        29.68F HX 100
CHUUK AP       CLOUDY    88  82  84 S12       29.74F HX 108
POHNPEI AP     NOT AVBL
POHNPEI WSO    CLOUDY    84  81  89 N3        29.79F HX  98
KOSRAE AP      NOT AVBL

$$

PMZ181-030600-
REPUBLIC OF THE MARSHALL ISLANDS-

CITY           SKY/WX    TMP DP  RH WIND       PRES   REMARKS
KWAJALEIN AP   PTSUNNY   88  75  66 NE12      29.73S HX  97
MAJURO AP      PTSUNNY   88  79  74 NE8       29.70S HX 102
MAJURO WSO     PTSUNNY   88  79  74 NE6       29.70S HX 102

$$



USA.gov is the U.S. government's official web portal to all federal, state and local government web resources and services.